WetterOnline ( http://www.wetteronline.de )

Wetter aktuell Gera

Aktuelles Wetter: Gera/Leumnitz (311m)

6-stündlich | Neueste Meldungen
Ortszeit Temperatur Wetter
Mo, 23.07. 8:00 18.3° C bedeckt
Mo, 23.07. 2:00 17.8° C bedeckt
So, 22.07. 20:00 21.0° C bedeckt
So, 22.07. 14:00 20.4° C bedeckt
So, 22.07. 8:00 16.9° C bewölkt
So, 22.07. 2:00 18.0° C leichter Regen
Sa, 21.07. 20:00 20.0° C bewölkt
Sa, 21.07. 14:00 19.8° C leichter Regen
Ortszeit Temperatur Wetter
Mo, 23.07. 8:00 18.3° C bedeckt
Mo, 23.07. 7:50 18.3° C bedeckt
Mo, 23.07. 7:40 18.0° C bedeckt
Mo, 23.07. 7:30 17.0° C bedeckt
Mo, 23.07. 7:20 17.0° C bedeckt
Mo, 23.07. 7:10 16.6° C bedeckt
Mo, 23.07. 7:00 16.3° C bewölkt
Mo, 23.07. 6:30 15.7° C wolkig
Mo, 23.07. 6:00 15.0° C leicht bewölkt
Mo, 23.07. 5:30 15.4° C bedeckt
Mo, 23.07. 5:00 15.5° C fast wolkenlos
Ortszeit Relative Feuchte Sichtweite
Mo, 23.07. 8:00 79% 11 km
Mo, 23.07. 2:00 85% 12 km
So, 22.07. 20:00 67% 24 km
So, 22.07. 14:00 71% 21 km
So, 22.07. 8:00 91% 11 km
So, 22.07. 2:00 87% 10 km
Sa, 21.07. 20:00 73% 30 km
Sa, 21.07. 14:00 78% 14 km
Ortszeit Relative Feuchte Sichtweite
Mo, 23.07. 8:00 79% 11 km
Mo, 23.07. 7:50 79% -
Mo, 23.07. 7:40 81% -
Mo, 23.07. 7:30 86% 9 km
Mo, 23.07. 7:20 86% -
Mo, 23.07. 7:10 88% -
Mo, 23.07. 7:00 90% 9 km
Mo, 23.07. 6:30 91% 9 km
Mo, 23.07. 6:00 92% 8 km
Mo, 23.07. 5:30 92% 10 km
Mo, 23.07. 5:00 89% 11 km
Ortszeit Niederschlagsmenge Niederschlagsart
Mo, 23.07. 8:00 0.1 l/m2 in 12 Std. -
Mo, 23.07. 2:00 0.1 l/m2 in 6 Std. Regen
So, 22.07. 20:00 0.1 l/m2 in 12 Std. Regen
So, 22.07. 14:00 0.1 l/m2 in 6 Std. Regen
So, 22.07. 8:00 1 l/m2 in 12 Std. Regen
So, 22.07. 2:00 0.1 l/m2 in 6 Std. Regen
Sa, 21.07. 20:00 0.1 l/m2 in 12 Std. Regen
Sa, 21.07. 14:00 0.1 l/m2 in 6 Std. Regen
Ortszeit Niederschlagsmenge Niederschlagsart
Mo, 23.07. 8:00 0.0 l/m2 in 1 Std. -
Mo, 23.07. 7:50 keine Meldung -
Mo, 23.07. 7:40 keine Meldung -
Mo, 23.07. 7:30 0.0 l/m2 in 1 Std. -
Mo, 23.07. 7:20 keine Meldung -
Mo, 23.07. 7:10 keine Meldung -
Mo, 23.07. 7:00 0.0 l/m2 in 1 Std. -
Mo, 23.07. 6:30 0.0 l/m2 in 1 Std. -
Mo, 23.07. 6:00 0.0 l/m2 in 1 Std. -
Mo, 23.07. 5:30 0.0 l/m2 in 1 Std. -
Mo, 23.07. 5:00 0.0 l/m2 in 1 Std. -
Ortszeit Stärke Spitze Richtung
km/h Bft. km/h Grad Sektor
Mo, 23.07. 8:00 4 1 11 300° NW
Mo, 23.07. 2:00 7 2 11 240° SW
So, 22.07. 20:00 9 2 22 290° W
So, 22.07. 14:00 7 2 22 310° NW
So, 22.07. 8:00 7 2 22 260° W
So, 22.07. 2:00 11 2 18 250° W
Sa, 21.07. 20:00 4 1 32 320° NW
Sa, 21.07. 14:00 15 3 26 250° W
Ortszeit Stärke Spitze Richtung
km/h Bft. km/h Grad Sektor
Mo, 23.07. 8:00 4 1 7 300° NW
Mo, 23.07. 7:50 4 1 - 300° NW
Mo, 23.07. 7:40 6 1 - 290° W
Mo, 23.07. 7:30 4 1 7 270° W
Mo, 23.07. 7:20 4 1 - 270° W
Mo, 23.07. 7:10 6 1 - 250° W
Mo, 23.07. 7:00 6 1 7 230° SW
Mo, 23.07. 6:30 4 1 7 290° W
Mo, 23.07. 6:00 6 1 6 270° W
Mo, 23.07. 5:30 4 1 7 270° W
Mo, 23.07. 5:00 7 2 11 280° W
Ortszeit Untergrenze Bedeckung Gattung
total tief tief mittel hoch
Mo, 23.07. 8:00 - 8/8 - - - -
Mo, 23.07. 2:00 3000 m 8/8 8/8 - - -
So, 22.07. 20:00 3000 m 8/8 8/8 - - -
So, 22.07. 14:00 2700 m 8/8 8/8 - - -
So, 22.07. 8:00 3000 m 8/8 7/8 - - -
So, 22.07. 2:00 2100 m 8/8 8/8 - - -
Sa, 21.07. 20:00 2700 m 8/8 6/8 - - -
Sa, 21.07. 14:00 3000 m 7/8 7/8 - - -
Ortszeit Bedeckungsgrad in Achtel und Wolkenuntergrenze
Mo, 23.07. 8:00 8
Mo, 23.07. 7:50 9 9 9
Mo, 23.07. 7:40 8(2100m)
Mo, 23.07. 7:30 8(2100m)
Mo, 23.07. 7:20 8(2100m)
Mo, 23.07. 7:10 8(2100m)
Mo, 23.07. 7:00 7(2100m)
Mo, 23.07. 6:30 5(1800m) 7(1800m)
Mo, 23.07. 6:00 1(1500m)
Mo, 23.07. 5:30 9 9 9
Mo, 23.07. 5:00 1(3300m)
Ortszeit Luftdruck NN (hPa) Tendenz (hPa in 3 Std.)
Mo, 23.07. 8:00 1017 + 1,0
Mo, 23.07. 2:00 1015 + 0,1
So, 22.07. 20:00 1014 + 0,1
So, 22.07. 14:00 1014 + 0,5
So, 22.07. 8:00 1013 + 0,7
So, 22.07. 2:00 1012 + 0,2
Sa, 21.07. 20:00 1011 - 0,5
Sa, 21.07. 14:00 1012 + 0,1
Ortszeit Luftdruck NN (hPa) Tendenz (hPa in 3 Std.)
Mo, 23.07. 8:00 1017 + 1,0
Mo, 23.07. 7:50 1017 keine Meldung
Mo, 23.07. 7:40 1017 keine Meldung
Mo, 23.07. 7:30 1017 + 0,9
Mo, 23.07. 7:20 1017 keine Meldung
Mo, 23.07. 7:10 1017 keine Meldung
Mo, 23.07. 7:00 1017 + 0,8
Mo, 23.07. 6:30 1017 + 0,8
Mo, 23.07. 6:00 1017 + 0,9
Mo, 23.07. 5:30 1016 + 0,6
Mo, 23.07. 5:00 1016 + 0,5
Ortszeit Schneehöhe (cm)
Mo, 23.07. 8:00 -
Mo, 23.07. 2:00 -
So, 22.07. 20:00 -
So, 22.07. 14:00 -
So, 22.07. 8:00 -
So, 22.07. 2:00 -
Sa, 21.07. 20:00 -
Sa, 21.07. 14:00 -
Ortszeit Schneehöhe (cm)
Mo, 23.07. 8:00 -
Mo, 23.07. 7:50 -
Mo, 23.07. 7:40 -
Mo, 23.07. 7:30 -
Mo, 23.07. 7:20 -
Mo, 23.07. 7:10 -
Mo, 23.07. 7:00 -
Mo, 23.07. 6:30 -
Mo, 23.07. 6:00 -
Mo, 23.07. 5:30 -
Mo, 23.07. 5:00 -
Link zu dieser Seite / Seite empfehlen

Das Wetter in ...